Weather in Rakh'ya

Russia / Saint-Petersburg and Leningrad Oblast     60°05′34″N   30°50′25″E
temp.,
°C
wind,
m/s
gust,
m/s
humid.,
%
clouds,
%
prec.,
mm/h
press.,
hPa
HPBL,
m
24 june, thu
thu2400:00+20wnw26796 0.0 1016158
03:00+18wsw269019 0.0 1017172
06:00+20wsw368924 0.0 1017278
09:00+24wsw346218 0.0 1017553
12:00+28wsw2346100 0.0 10161087
15:00+21w358599 0.8 1016134
18:00+23wnw358026 1.0 1016524
21:00+21wsw23847 1.0 101686
25 june, fri
fri2500:00+17ese11974 0.0 101618
03:00+16e119753 0.0 101511
06:00+18e119194 0.0 101595
09:00+24e216392 0.0 1015607
12:00+27ene335447 0.0 10141021
15:00+25ene4663100 0.6 1011587
18:00+19nne479645 24.4 1011325
21:00+18e2796100 24.4 1012300
26 june, sat
sat2600:00+16ne119982 0.0 101128
03:00+17nne1199100 0.0 101168
06:00+17ene1297100 0.0 1010190
09:00+18e1294100 0.0 1011226
12:00+24ene016672 0.0 1011711
15:00+28se115230 0.0 10101241
18:00+27ese115292 0.0 1010957
21:00+21ne238291 0.1 101175
27 june, sun
sun2700:00+17e119126 0.0 101214
03:00+16wsw12955 0.1 101227
06:00+17w259185 0.0 1012183
09:00+21w35699 0.0 1013530
12:00+24w445818 0.0 10131006
15:00+24w3562100 0.1 10131053
18:00+22wnw4665100 0.0 1013485
21:00+19w397527 0.0 1012385
28 june, mon
mon2800:00+14w2795100 0.0 1013168
03:00+14ssw279573 0.0 1013157
06:00+15wsw3883100 0.0 1012282
09:00+19w3578100 0.0 1012584
12:00+22wnw357654 0.8 1013860
15:00+25nnw344473 1.6 10131582
18:00+23w464898 0.0 1013505
21:00+18w39675 0.0 1013257